| time (UTC) | temp F | wind direction | speed MPH | gust MPH | rain 1hr in | rain 24hr in | rain mn in | humidity % | barometer mb |
| 20260505193354 | 66 | 191 | 1.0 | 2.0 | 0.00 | 0.00 | 0.00 | 98 | 1009.0 |
| 20260505192853 | 66 | 7 | 2.0 | 2.0 | 0.00 | 0.00 | 0.00 | 98 | 1009.0 |
| 20260505192354 | 66 | 298 | 3.0 | 3.0 | 0.00 | 0.00 | 0.00 | 98 | 1010.0 |
| 20260505191853 | 66 | 227 | 0.0 | 2.0 | 0.00 | 0.00 | 0.00 | 98 | 1009.0 |
| 20260505191354 | 65 | 174 | 0.0 | 2.0 | 0.00 | 0.00 | 0.00 | 99 | 1010.0 |
| 20260505190853 | 65 | 229 | 0.0 | 2.0 | 0.00 | 0.00 | 0.00 | 99 | 1010.0 |
| 20260505190354 | 65 | 253 | 2.0 | 3.0 | 0.00 | 0.00 | 0.00 | 99 | 1009.0 |
| 20260505185854 | 65 | 236 | 0.0 | 3.0 | 0.00 | 0.00 | 0.00 | 99 | 1010.0 |
| 20260505185353 | 65 | 207 | 2.0 | 4.0 | 0.00 | 0.00 | 0.00 | 98 | 1009.0 |
| 20260505184854 | 65 | 192 | 2.0 | 3.0 | 0.00 | 0.00 | 0.00 | 98 | 1010.0 |
| 20260505184354 | 65 | 200 | 3.0 | 3.0 | 0.00 | 0.00 | 0.00 | 98 | 1010.0 |
| 20260505183854 | 65 | 215 | 1.0 | 2.0 | 0.00 | 0.00 | 0.00 | 98 | 1010.0 |
| 20260505183353 | 65 | 219 | 2.0 | 3.0 | 0.00 | 0.00 | 0.00 | 98 | 1010.0 |
| 20260505182855 | 65 | 291 | 0.0 | 3.0 | 0.00 | 0.00 | 0.00 | 98 | 1010.0 |
| 20260505182353 | 65 | 233 | 3.0 | 4.0 | 0.00 | 0.00 | 0.00 | 98 | 1010.0 |
| 20260505181854 | 65 | 224 | 1.0 | 3.0 | 0.00 | 0.00 | 0.00 | 98 | 1010.0 |
| 20260505181354 | 65 | 198 | 2.0 | 5.0 | 0.00 | 0.00 | 0.00 | 98 | 1010.0 |
| 20260505180854 | 65 | 213 | 1.0 | 3.0 | 0.00 | 0.00 | 0.00 | 98 | 1010.0 |
| 20260505180354 | 65 | 212 | 2.0 | 4.0 | 0.00 | 0.00 | 0.00 | 98 | 1009.0 |
| 20260505175854 | 65 | 264 | 3.0 | 5.0 | 0.00 | 0.00 | 0.00 | 98 | 1009.0 |
| 20260505175354 | 65 | 244 | 3.0 | 5.0 | 0.00 | 0.00 | 0.00 | 98 | 1010.0 |
| 20260505174853 | 65 | 241 | 2.0 | 3.0 | 0.00 | 0.00 | 0.00 | 98 | 1009.0 |
| 20260505174354 | 65 | 237 | 3.0 | 3.0 | 0.00 | 0.00 | 0.00 | 98 | 1010.0 |
| 20260505173853 | 66 | 259 | 2.0 | 4.0 | 0.00 | 0.00 | 0.00 | 98 | 1010.0 |
| 20260505173354 | 66 | 237 | 2.0 | 4.0 | 0.00 | 0.00 | 0.00 | 98 | 1010.0 |
| 20260505172854 | 66 | 114 | 1.0 | 4.0 | 0.00 | 0.00 | 0.00 | 98 | 1010.0 |
| 20260505172354 | 66 | 208 | 4.0 | 5.0 | 0.02 | 0.00 | 0.00 | 98 | 1010.0 |
| 20260505171853 | 66 | 252 | 1.0 | 3.0 | 0.02 | 0.00 | 0.00 | 98 | 1009.0 |
| 20260505171353 | 66 | 189 | 4.0 | 5.0 | 0.00 | 0.00 | 0.00 | 98 | 1010.0 |
| 20260505170853 | 66 | 248 | 2.0 | 4.0 | 0.00 | 0.00 | 0.00 | 98 | 1010.0 |
| 20260505170354 | 66 | 211 | 3.0 | 4.0 | 0.00 | 0.00 | 0.00 | 98 | 1010.0 |
| 20260505165854 | 66 | 291 | 3.0 | 4.0 | 0.00 | 0.00 | 0.00 | 98 | 1009.0 |
| 20260505165353 | 66 | 284 | 3.0 | 4.0 | 0.00 | 0.00 | 0.00 | 98 | 1009.0 |
| 20260505164854 | 66 | 269 | 2.0 | 4.0 | 0.00 | 0.00 | 0.00 | 98 | 1009.0 |
| 20260505164354 | 66 | 223 | 1.0 | 7.0 | 0.00 | 0.00 | 0.00 | 98 | 1009.0 |
| 20260505163854 | 66 | 207 | 2.0 | 5.0 | 0.00 | 0.00 | 0.00 | 98 | 1009.0 |
| 20260505163353 | 66 | 220 | 1.0 | 4.0 | 0.00 | 0.00 | 0.00 | 98 | 1009.0 |
| 20260505162853 | 66 | 245 | 3.0 | 5.0 | 0.00 | 0.00 | 0.00 | 98 | 1009.0 |
| 20260505162353 | 66 | 138 | 2.0 | 5.0 | 0.00 | 0.00 | 0.00 | 98 | 1009.0 |
| 20260505161853 | 66 | 238 | 2.0 | 3.0 | 0.00 | 0.00 | 0.00 | 98 | 1009.0 |
| 20260505161354 | 66 | 257 | 2.0 | 5.0 | 0.00 | 0.00 | 0.00 | 98 | 1010.0 |
| 20260505160853 | 66 | 331 | 2.0 | 3.0 | 0.00 | 0.00 | 0.00 | 98 | 1010.0 |
| 20260505160354 | 66 | 263 | 2.0 | 6.0 | 0.00 | 0.00 | 0.00 | 98 | 1009.0 |
| 20260505153353 | 66 | 232 | 3.0 | 4.0 | 0.00 | 0.00 | 0.10 | 98 | 1010.0 |
| 20260505152854 | 67 | 239 | 2.0 | 2.0 | 0.00 | 0.00 | 0.10 | 98 | 1010.0 |
| 20260505152359 | 66 | 283 | 2.0 | 3.0 | 0.00 | 0.00 | 0.10 | 98 | 1010.0 |
| 20260505151854 | 66 | 250 | 3.0 | 3.0 | 0.00 | 0.00 | 0.10 | 98 | 1010.0 |
| 20260505151353 | 67 | 284 | 1.0 | 3.0 | 0.00 | 0.00 | 0.10 | 98 | 1010.0 |
| 20260505150854 | 67 | 213 | 3.0 | 4.0 | 0.00 | 0.00 | 0.10 | 98 | 1010.0 |
| 20260505150353 | 67 | 245 | 1.0 | 3.0 | 0.00 | 0.00 | 0.10 | 97 | 1010.0 |
| 20260505140356 | 68 | 266 | 2.0 | 3.0 | 0.00 | 0.00 | 0.10 | 97 | 1010.0 |
| 20260505124853 | 67 | 255 | 2.0 | 3.0 | 0.00 | 0.00 | 0.10 | 97 | 1009.0 |
| 20260505124353 | 67 | 255 | 2.0 | 3.0 | 0.00 | 0.00 | 0.10 | 97 | 1009.0 |
| 20260505123853 | 67 | 265 | 3.0 | 3.0 | 0.00 | 0.00 | 0.10 | 97 | 1009.0 |
| 20260505123353 | 67 | 290 | 0.0 | 3.0 | 0.00 | 0.00 | 0.10 | 97 | 1009.0 |
| 20260505122854 | 67 | 278 | 3.0 | 4.0 | 0.00 | 0.00 | 0.10 | 97 | 1009.0 |
| 20260505122354 | 67 | 257 | 1.0 | 3.0 | 0.02 | 0.00 | 0.10 | 97 | 1009.0 |
| 20260505121854 | 67 | 222 | 2.0 | 4.0 | 0.02 | 0.00 | 0.10 | 97 | 1009.0 |
| 20260505121354 | 67 | 257 | 3.0 | 4.0 | 0.05 | 0.00 | 0.09 | 97 | 1009.0 |
| 20260505120853 | 67 | 257 | 3.0 | 3.0 | 0.12 | 0.00 | 0.09 | 96 | 1009.0 |
| 20260505120354 | 68 | 254 | 2.0 | 3.0 | 0.26 | 0.00 | 0.09 | 96 | 1009.0 |
| 20260505115854 | 68 | 211 | 2.0 | 5.0 | 0.35 | 0.00 | 0.07 | 96 | 1009.0 |
| 20260505115353 | 68 | 267 | 4.0 | 7.0 | 0.17 | 0.00 | 0.04 | 94 | 1009.0 |
| 20260505114853 | 69 | 269 | 1.0 | 6.0 | 0.07 | 0.00 | 0.01 | 93 | 1009.0 |
| 20260505114353 | 69 | 229 | 6.0 | 7.0 | 0.05 | 0.00 | 0.01 | 92 | 1009.0 |
| 20260505113853 | 70 | 271 | 2.0 | 6.0 | 0.00 | 0.00 | 0.00 | 90 | 1009.0 |
| 20260505113353 | 70 | 245 | 3.0 | 6.0 | 0.00 | 0.00 | 0.00 | 90 | 1009.0 |
| 20260505112853 | 70 | 254 | 5.0 | 7.0 | 0.00 | 0.00 | 0.00 | 89 | 1009.0 |
| 20260505112354 | 70 | 232 | 4.0 | 5.0 | 0.00 | 0.00 | 0.00 | 89 | 1009.0 |
| 20260505111854 | 70 | 258 | 5.0 | 6.0 | 0.00 | 0.00 | 0.00 | 88 | 1008.0 |
| 20260505111354 | 70 | 279 | 3.0 | 5.0 | 0.00 | 0.00 | 0.00 | 88 | 1009.0 |
| 20260505110854 | 70 | 217 | 4.0 | 6.0 | 0.00 | 0.00 | 0.00 | 88 | 1008.0 |
| 20260505110353 | 70 | 203 | 3.0 | 6.0 | 0.00 | 0.00 | 0.00 | 88 | 1009.0 |
| 20260505101853 | 71 | 277 | 5.0 | 8.0 | 0.00 | 0.00 | 0.00 | 87 | 1008.0 |
| 20260505101355 | 71 | 213 | 4.0 | 10.0 | 0.00 | 0.00 | 0.00 | 86 | 1008.0 |
| 20260505100853 | 71 | 259 | 5.0 | 7.0 | 0.00 | 0.00 | 0.00 | 86 | 1008.0 |
| 20260505100353 | 71 | 275 | 2.0 | 12.0 | 0.00 | 0.00 | 0.00 | 85 | 1008.0 |
| 20260505095853 | 72 | 238 | 3.0 | 8.0 | 0.00 | 0.00 | 0.00 | 84 | 1008.0 |
| 20260505095353 | 72 | 295 | 4.0 | 6.0 | 0.00 | 0.00 | 0.00 | 84 | 1008.0 |
| 20260505094853 | 72 | 238 | 4.0 | 9.0 | 0.00 | 0.00 | 0.00 | 83 | 1008.0 |
| 20260505094353 | 73 | 282 | 5.0 | 9.0 | 0.00 | 0.00 | 0.00 | 82 | 1008.0 |
| 20260505093854 | 73 | 253 | 6.0 | 7.0 | 0.00 | 0.00 | 0.00 | 80 | 1008.0 |
| 20260505093355 | 74 | 276 | 4.0 | 9.0 | 0.00 | 0.00 | 0.00 | 78 | 1008.0 |
| 20260505092853 | 74 | 242 | 7.0 | 8.0 | 0.00 | 0.00 | 0.00 | 78 | 1008.0 |
| 20260505092353 | 73 | 278 | 3.0 | 9.0 | 0.00 | 0.00 | 0.00 | 79 | 1008.0 |
| 20260505091854 | 73 | 246 | 5.0 | 9.0 | 0.00 | 0.00 | 0.00 | 80 | 1008.0 |
| 20260505091353 | 73 | 340 | 3.0 | 12.0 | 0.00 | 0.00 | 0.00 | 80 | 1008.0 |
| 20260505090854 | 73 | 294 | 3.0 | 11.0 | 0.00 | 0.00 | 0.00 | 79 | 1008.0 |
| 20260505090353 | 74 | 238 | 6.0 | 10.0 | 0.00 | 0.00 | 0.00 | 79 | 1008.0 |
| 20260505085854 | 74 | 285 | 5.0 | 10.0 | 0.00 | 0.00 | 0.00 | 77 | 1008.0 |
| 20260505085353 | 75 | 233 | 4.0 | 8.0 | 0.00 | 0.00 | 0.00 | 76 | 1008.0 |
| 20260505084854 | 76 | 266 | 7.0 | 9.0 | 0.00 | 0.00 | 0.00 | 74 | 1008.0 |
| 20260505084353 | 77 | 256 | 3.0 | 7.0 | 0.00 | 0.00 | 0.00 | 71 | 1008.0 |
| 20260505083853 | 77 | 239 | 3.0 | 7.0 | 0.00 | 0.00 | 0.00 | 70 | 1007.0 |
| 20260505083353 | 77 | 309 | 5.0 | 7.0 | 0.00 | 0.00 | 0.00 | 69 | 1007.0 |
| 20260505082854 | 78 | 246 | 7.0 | 11.0 | 0.00 | 0.00 | 0.00 | 68 | 1008.0 |
| 20260505082353 | 78 | 231 | 2.0 | 8.0 | 0.00 | 0.00 | 0.00 | 67 | 1008.0 |
| 20260505081853 | 78 | 214 | 7.0 | 10.0 | 0.00 | 0.00 | 0.00 | 67 | 1008.0 |
| 20260505081354 | 78 | 269 | 5.0 | 11.0 | 0.00 | 0.00 | 0.00 | 66 | 1008.0 |
| 20260505080854 | 78 | 282 | 4.0 | 13.0 | 0.00 | 0.00 | 0.00 | 65 | 1008.0 |
| 20260505080353 | 78 | 241 | 4.0 | 11.0 | 0.00 | 0.00 | 0.00 | 65 | 1008.0 |
| 20260505075853 | 78 | 243 | 6.0 | 9.0 | 0.00 | 0.00 | 0.00 | 63 | 1008.0 |
| 20260505075353 | 79 | 239 | 3.0 | 9.0 | 0.00 | 0.00 | 0.00 | 63 | 1008.0 |
| 20260505074855 | 79 | 295 | 4.0 | 7.0 | 0.00 | 0.00 | 0.00 | 63 | 1008.0 |
| 20260505074354 | 79 | 316 | 6.0 | 8.0 | 0.00 | 0.00 | 0.00 | 63 | 1008.0 |
| 20260505073854 | 79 | 302 | 9.0 | 10.0 | 0.00 | 0.00 | 0.00 | 63 | 1008.0 |
| 20260505073353 | 78 | 256 | 4.0 | 9.0 | 0.00 | 0.00 | 0.00 | 64 | 1008.0 |
| 20260505072853 | 79 | 260 | 4.0 | 6.0 | 0.00 | 0.00 | 0.00 | 62 | 1008.0 |
| 20260505072355 | 78 | 267 | 7.0 | 10.0 | 0.00 | 0.00 | 0.00 | 64 | 1008.0 |
| 20260505071854 | 77 | 207 | 4.0 | 6.0 | 0.00 | 0.00 | 0.00 | 65 | 1008.0 |
| 20260505071353 | 78 | 225 | 4.0 | 8.0 | 0.00 | 0.00 | 0.00 | 64 | 1008.0 |
| 20260505070853 | 78 | 250 | 4.0 | 9.0 | 0.00 | 0.00 | 0.00 | 65 | 1008.0 |
| 20260505070353 | 77 | 308 | 5.0 | 7.0 | 0.00 | 0.00 | 0.00 | 66 | 1009.0 |
| 20260505065853 | 77 | 285 | 3.0 | 8.0 | 0.00 | 0.00 | 0.00 | 66 | 1009.0 |
| 20260505065355 | 77 | 242 | 5.0 | 5.0 | 0.00 | 0.00 | 0.00 | 65 | 1009.0 |
| 20260505064853 | 77 | 230 | 4.0 | 9.0 | 0.00 | 0.00 | 0.00 | 66 | 1009.0 |
| 20260505064353 | 77 | 292 | 4.0 | 8.0 | 0.00 | 0.00 | 0.00 | 66 | 1009.0 |
| 20260505063853 | 77 | 250 | 7.0 | 11.0 | 0.00 | 0.00 | 0.00 | 67 | 1009.0 |
| 20260505063353 | 77 | 241 | 4.0 | 6.0 | 0.00 | 0.00 | 0.00 | 66 | 1009.0 |
| 20260505062854 | 78 | 287 | 4.0 | 10.0 | 0.00 | 0.00 | 0.00 | 65 | 1009.0 |
| 20260505062353 | 78 | 242 | 3.0 | 9.0 | 0.00 | 0.00 | 0.00 | 65 | 1009.0 |
| 20260505061853 | 76 | 299 | 6.0 | 8.0 | 0.00 | 0.00 | 0.00 | 67 | 1009.0 |
| 20260505061353 | 77 | 272 | 6.0 | 8.0 | 0.00 | 0.00 | 0.00 | 66 | 1009.0 |
| 20260505060853 | 77 | 272 | 4.0 | 8.0 | 0.00 | 0.00 | 0.00 | 65 | 1009.0 |
| 20260505060353 | 77 | 288 | 5.0 | 8.0 | 0.00 | 0.00 | 0.00 | 65 | 1009.0 |
| 20260505055853 | 78 | 244 | 6.0 | 11.0 | 0.00 | 0.00 | 0.00 | 64 | 1009.0 |
| 20260505055354 | 78 | 254 | 5.0 | 8.0 | 0.00 | 0.00 | 0.00 | 64 | 1010.0 |
| 20260505054853 | 78 | 309 | 5.0 | 9.0 | 0.00 | 0.00 | 0.00 | 62 | 1009.0 |
| 20260505054353 | 77 | 275 | 3.0 | 9.0 | 0.00 | 0.00 | 0.00 | 64 | 1009.0 |
| 20260505053855 | 76 | 227 | 2.0 | 9.0 | 0.00 | 0.00 | 0.00 | 66 | 1009.0 |
| 20260505053353 | 77 | 258 | 7.0 | 13.0 | 0.00 | 0.00 | 0.00 | 65 | 1010.0 |
| 20260505052853 | 77 | 264 | 5.0 | 8.0 | 0.00 | 0.00 | 0.00 | 64 | 1010.0 |
| 20260505052354 | 79 | 244 | 6.0 | 8.0 | 0.00 | 0.00 | 0.00 | 61 | 1010.0 |
| 20260505051853 | 79 | 264 | 5.0 | 8.0 | 0.00 | 0.00 | 0.00 | 61 | 1010.0 |
| 20260505051353 | 78 | 247 | 6.0 | 8.0 | 0.00 | 0.00 | 0.00 | 63 | 1010.0 |
| 20260505050853 | 77 | 229 | 5.0 | 7.0 | 0.00 | 0.00 | 0.00 | 64 | 1010.0 |
| 20260505050353 | 78 | 283 | 4.0 | 9.0 | 0.00 | 0.00 | 0.00 | 64 | 1010.0 |
| 20260505041422 | 78 | 269 | 5.0 | 10.0 | 0.00 | 0.00 | 0.00 | 62 | 1011.0 |
| 20260505040854 | 79 | 283 | 2.0 | 7.0 | 0.00 | 0.00 | 0.00 | 60 | 1011.0 |
| 20260505035915 | 78 | 279 | 3.0 | 6.0 | 0.00 | 0.00 | 0.00 | 59 | 1011.0 |
| 20260505035356 | 80 | 272 | 5.0 | 6.0 | 0.00 | 0.00 | 0.00 | 57 | 1011.0 |
| 20260505034853 | 81 | 310 | 2.0 | 9.0 | 0.00 | 0.00 | 0.00 | 55 | 1011.0 |
| 20260505034353 | 79 | 309 | 2.0 | 4.0 | 0.00 | 0.00 | 0.00 | 57 | 1011.0 |
| 20260505033853 | 77 | 226 | 2.0 | 8.0 | 0.00 | 0.00 | 0.00 | 61 | 1011.0 |
| 20260505033353 | 78 | 265 | 3.0 | 7.0 | 0.00 | 0.00 | 0.00 | 60 | 1011.0 |
| 20260505032853 | 79 | 282 | 3.0 | 10.0 | 0.00 | 0.00 | 0.00 | 58 | 1011.0 |
| 20260505032354 | 78 | 275 | 3.0 | 3.0 | 0.00 | 0.00 | 0.00 | 57 | 1011.0 |
| 20260505031853 | 79 | 240 | 5.0 | 7.0 | 0.00 | 0.00 | 0.00 | 54 | 1012.0 |
| 20260505031353 | 79 | 169 | 1.0 | 5.0 | 0.00 | 0.00 | 0.00 | 53 | 1012.0 |
| 20260505030854 | 79 | 239 | 4.0 | 7.0 | 0.00 | 0.00 | 0.00 | 55 | 1012.0 |
| 20260505030355 | 79 | 160 | 0.0 | 3.0 | 0.00 | 0.00 | 0.00 | 53 | 1012.0 |
| 20260505025855 | 80 | 77 | 1.0 | 5.0 | 0.00 | 0.00 | 0.00 | 53 | 1012.0 |
| 20260505025355 | 78 | 33 | 3.0 | 7.0 | 0.00 | 0.00 | 0.00 | 54 | 1012.0 |
| 20260505024855 | 80 | 305 | 3.0 | 6.0 | 0.00 | 0.00 | 0.00 | 52 | 1012.0 |
| 20260505024356 | 80 | 289 | 2.0 | 5.0 | 0.00 | 0.00 | 0.00 | 50 | 1012.0 |
| 20260505023853 | 79 | 96 | 3.0 | 5.0 | 0.00 | 0.00 | 0.00 | 50 | 1012.0 |
| 20260505023355 | 79 | 197 | 3.0 | 5.0 | 0.00 | 0.00 | 0.00 | 49 | 1012.0 |
| 20260505022855 | 79 | 175 | 4.0 | 4.0 | 0.00 | 0.00 | 0.00 | 49 | 1012.0 |
| 20260505022356 | 78 | 327 | 5.0 | 5.0 | 0.00 | 0.00 | 0.00 | 50 | 1012.0 |
| 20260505021855 | 79 | 339 | 4.0 | 5.0 | 0.00 | 0.00 | 0.00 | 50 | 1011.0 |
| 20260505021356 | 79 | 227 | 3.0 | 5.0 | 0.00 | 0.00 | 0.00 | 49 | 1012.0 |
| 20260505020854 | 78 | 294 | 2.0 | 5.0 | 0.00 | 0.00 | 0.00 | 51 | 1012.0 |
| 20260505020354 | 77 | 268 | 3.0 | 4.0 | 0.00 | 0.00 | 0.00 | 52 | 1012.0 |
| 20260505015853 | 77 | 273 | 2.0 | 5.0 | 0.00 | 0.00 | 0.00 | 52 | 1012.0 |
| 20260505015353 | 77 | 22 | 5.0 | 5.0 | 0.00 | 0.00 | 0.00 | 52 | 1012.0 |
| 20260505014854 | 77 | 180 | 2.0 | 4.0 | 0.00 | 0.00 | 0.00 | 51 | 1012.0 |
| 20260505014353 | 77 | 9 | 5.0 | 5.0 | 0.00 | 0.00 | 0.00 | 52 | 1012.0 |
| 20260505013853 | 76 | 206 | 3.0 | 5.0 | 0.00 | 0.00 | 0.00 | 51 | 1012.0 |
| 20260505013353 | 77 | 13 | 2.0 | 5.0 | 0.00 | 0.00 | 0.00 | 52 | 1012.0 |
| 20260505012853 | 77 | 214 | 3.0 | 4.0 | 0.00 | 0.00 | 0.00 | 52 | 1012.0 |
| 20260505012353 | 75 | 218 | 2.0 | 4.0 | 0.00 | 0.00 | 0.00 | 52 | 1012.0 |
| 20260505011854 | 74 | 164 | 1.0 | 3.0 | 0.00 | 0.00 | 0.00 | 54 | 1012.0 |
| 20260505011353 | 75 | 32 | 5.0 | 6.0 | 0.00 | 0.00 | 0.00 | 54 | 1012.0 |
| 20260505010854 | 75 | 247 | 1.0 | 6.0 | 0.00 | 0.00 | 0.00 | 53 | 1012.0 |
| 20260505010354 | 74 | 350 | 3.0 | 4.0 | 0.00 | 0.00 | 0.00 | 59 | 1013.0 |
| 20260505005855 | 74 | 57 | 1.0 | 4.0 | 0.00 | 0.00 | 0.00 | 57 | 1013.0 |
| 20260505005356 | 75 | 332 | 3.0 | 7.0 | 0.00 | 0.00 | 0.00 | 57 | 1013.0 |
| 20260505004854 | 74 | 305 | 3.0 | 5.0 | 0.00 | 0.00 | 0.00 | 59 | 1012.0 |
| 20260505004353 | 73 | 356 | 1.0 | 6.0 | 0.00 | 0.00 | 0.00 | 61 | 1012.0 |
| 20260505003853 | 71 | 216 | 1.0 | 5.0 | 0.00 | 0.00 | 0.00 | 63 | 1013.0 |
| 20260505003353 | 72 | 34 | 2.0 | 5.0 | 0.00 | 0.00 | 0.00 | 62 | 1013.0 |
| 20260505002853 | 72 | 301 | 4.0 | 6.0 | 0.00 | 0.00 | 0.00 | 63 | 1013.0 |
| 20260505002353 | 72 | 26 | 2.0 | 5.0 | 0.00 | 0.00 | 0.00 | 63 | 1012.0 |
| 20260505001855 | 72 | 332 | 3.0 | 7.0 | 0.00 | 0.00 | 0.00 | 64 | 1012.0 |
| 20260505001353 | 72 | 17 | 0.0 | 4.0 | 0.00 | 0.00 | 0.00 | 64 | 1013.0 |
| 20260505000853 | 72 | 270 | 4.0 | 8.0 | 0.00 | 0.00 | 0.00 | 64 | 1012.0 |
| 20260505000353 | 72 | 269 | 1.0 | 4.0 | 0.00 | 0.00 | 0.00 | 65 | 1012.0 |
| 20260504235853 | 71 | 216 | 2.0 | 5.0 | 0.00 | 0.00 | 0.00 | 67 | 1012.0 |
| 20260504235355 | 70 | 217 | 3.0 | 5.0 | 0.00 | 0.00 | 0.00 | 69 | 1012.0 |
| 20260504234853 | 70 | 214 | 2.0 | 5.0 | 0.00 | 0.00 | 0.00 | 70 | 1012.0 |
| 20260504234353 | 70 | 262 | 1.0 | 5.0 | 0.00 | 0.00 | 0.00 | 70 | 1012.0 |
| 20260504233853 | 70 | 20 | 2.0 | 6.0 | 0.00 | 0.00 | 0.00 | 71 | 1012.0 |
| 20260504233353 | 70 | 235 | 3.0 | 5.0 | 0.00 | 0.00 | 0.00 | 72 | 1012.0 |
| 20260504232853 | 70 | 265 | 0.0 | 6.0 | 0.00 | 0.00 | 0.00 | 72 | 1012.0 |
| 20260504232353 | 70 | 346 | 2.0 | 4.0 | 0.00 | 0.00 | 0.00 | 73 | 1012.0 |
| 20260504231854 | 69 | 280 | 3.0 | 3.0 | 0.00 | 0.00 | 0.00 | 75 | 1012.0 |
| 20260504231353 | 68 | 221 | 3.0 | 4.0 | 0.00 | 0.00 | 0.00 | 76 | 1012.0 |
| 20260504230854 | 69 | 68 | 1.0 | 4.0 | 0.00 | 0.00 | 0.00 | 75 | 1012.0 |
| 20260504230353 | 68 | 210 | 1.0 | 3.0 | 0.00 | 0.00 | 0.00 | 77 | 1012.0 |
| 20260504225853 | 68 | 318 | 3.0 | 5.0 | 0.00 | 0.00 | 0.00 | 77 | 1012.0 |
| 20260504225354 | 67 | 329 | 1.0 | 3.0 | 0.00 | 0.00 | 0.00 | 79 | 1012.0 |
| 20260504224853 | 66 | 193 | 0.0 | 3.0 | 0.00 | 0.00 | 0.00 | 82 | 1012.0 |
| 20260504224354 | 66 | 152 | 3.0 | 4.0 | 0.00 | 0.00 | 0.00 | 83 | 1012.0 |
| 20260504223854 | 66 | 116 | 1.0 | 4.0 | 0.00 | 0.00 | 0.00 | 84 | 1011.0 |
| 20260504223354 | 65 | 72 | 2.0 | 3.0 | 0.00 | 0.00 | 0.00 | 85 | 1011.0 |
| 20260504222854 | 65 | 114 | 0.0 | 4.0 | 0.00 | 0.00 | 0.00 | 85 | 1011.0 |
| 20260504222353 | 65 | 184 | 0.0 | 3.0 | 0.00 | 0.00 | 0.00 | 85 | 1011.0 |
| 20260504221853 | 64 | 306 | 1.0 | 3.0 | 0.00 | 0.00 | 0.00 | 87 | 1012.0 |
| 20260504221353 | 64 | 170 | 0.0 | 2.0 | 0.00 | 0.00 | 0.00 | 87 | 1011.0 |
| 20260504220853 | 64 | 295 | 0.0 | 3.0 | 0.00 | 0.00 | 0.00 | 87 | 1011.0 |
| 20260504220354 | 64 | 202 | 1.0 | 3.0 | 0.00 | 0.00 | 0.00 | 87 | 1011.0 |
| 20260504215853 | 64 | 218 | 2.0 | 3.0 | 0.00 | 0.00 | 0.00 | 86 | 1011.0 |
| 20260504215353 | 64 | 265 | 0.0 | 4.0 | 0.00 | 0.00 | 0.00 | 86 | 1011.0 |
| 20260504214853 | 64 | 354 | 3.0 | 5.0 | 0.00 | 0.00 | 0.00 | 85 | 1011.0 |
| 20260504214353 | 64 | 336 | 1.0 | 3.0 | 0.00 | 0.00 | 0.00 | 85 | 1011.0 |
| 20260504213853 | 64 | 337 | 0.0 | 2.0 | 0.00 | 0.00 | 0.00 | 85 | 1011.0 |
| 20260504213354 | 64 | 47 | 0.0 | 2.0 | 0.00 | 0.00 | 0.00 | 85 | 1011.0 |
| 20260504212854 | 64 | 290 | 1.0 | 2.0 | 0.00 | 0.00 | 0.00 | 85 | 1011.0 |
| 20260504212353 | 65 | 159 | 0.0 | 3.0 | 0.00 | 0.00 | 0.00 | 83 | 1011.0 |
| 20260504211853 | 65 | 226 | 1.0 | 3.0 | 0.00 | 0.00 | 0.00 | 83 | 1011.0 |
| 20260504211354 | 65 | 294 | 2.0 | 3.0 | 0.00 | 0.00 | 0.00 | 82 | 1011.0 |
| 20260504210855 | 65 | 115 | 1.0 | 3.0 | 0.00 | 0.00 | 0.00 | 82 | 1011.0 |
| 20260504210354 | 65 | 303 | 0.0 | 3.0 | 0.00 | 0.00 | 0.00 | 82 | 1010.0 |
| 20260504205853 | 65 | 14 | 0.0 | 2.0 | 0.00 | 0.00 | 0.00 | 82 | 1010.0 |
| 20260504205353 | 64 | 280 | 2.0 | 2.0 | 0.00 | 0.00 | 0.00 | 83 | 1010.0 |
| 20260504204854 | 64 | 275 | 2.0 | 2.0 | 0.00 | 0.00 | 0.00 | 85 | 1010.0 |
| 20260504204353 | 64 | 220 | 1.0 | 4.0 | 0.00 | 0.00 | 0.00 | 85 | 1010.0 |
| 20260504203854 | 65 | 197 | 1.0 | 3.0 | 0.00 | 0.00 | 0.00 | 83 | 1010.0 |
| 20260504203353 | 65 | 359 | 1.0 | 3.0 | 0.00 | 0.00 | 0.00 | 83 | 1010.0 |
| 20260504202854 | 65 | 236 | 1.0 | 3.0 | 0.00 | 0.00 | 0.00 | 83 | 1010.0 |
| 20260504202354 | 65 | 317 | 1.0 | 3.0 | 0.00 | 0.00 | 0.00 | 84 | 1010.0 |
| 20260504201854 | 65 | 231 | 0.0 | 3.0 | 0.00 | 0.00 | 0.00 | 87 | 1010.0 |
| 20260504201354 | 65 | 62 | 0.0 | 3.0 | 0.00 | 0.00 | 0.00 | 88 | 1010.0 |
| 20260504200853 | 65 | 268 | 1.0 | 3.0 | 0.00 | 0.00 | 0.00 | 90 | 1010.0 |
| 20260504200353 | 65 | 230 | 3.0 | 4.0 | 0.00 | 0.00 | 0.00 | 92 | 1009.0 |
| 20260504195854 | 65 | 295 | 2.0 | 3.0 | 0.00 | 0.00 | 0.00 | 93 | 1009.0 |
| 20260504195354 | 66 | 232 | 2.0 | 4.0 | 0.00 | 0.00 | 0.00 | 92 | 1010.0 |
| 20260504194853 | 66 | 249 | 0.0 | 3.0 | 0.00 | 0.00 | 0.00 | 92 | 1009.0 |
| 20260504194355 | 66 | 232 | 0.0 | 2.0 | 0.00 | 0.00 | 0.00 | 93 | 1009.0 |
| 20260504193853 | 66 | 71 | 2.0 | 4.0 | 0.00 | 0.00 | 0.00 | 94 | 1009.0 |